星链-3264 (STARLINK-3264 )

导读

STARLINK-3264是美国太空探索技术公司SpaceX星链卫星互联网项目中的一颗卫星,于2021年12月18日发射升空,属于星链星座组网卫星,旨在为全球范围内用户提供低延迟、高速率的宽带互联网服务,运行在近地轨道,助力星链星座完成全球覆盖布局,该卫星目前正常在轨运行。

Basic Information
目录编号:
50198
目录名称:
STARLINK-3264
国际标识:
2021-125AU
轨道中心:
EARTH
卫星名称:
星链-3264
卫星全名:
星链-3264 (STARLINK-3264 )
卫星状态:
在轨 (已飞行1722 天)
发射日期:
2021-12-18 UTC
国别 :
美国 (US)
星等 :
--
Orbit Information
数据来源 国际轨道数据 AOE轨道数据
星历时间 2026-09-05T07:56:53+0800
12小时前
查看轨道信息
2026-09-03T23:00:00+0800
1天前
查看轨道信息
半长轴 6891.852km 6892.003km
偏心率 0.000263 0.0002652
轨道倾角 53.157° 53.155°
近地点辐角 93.599° 101.035°
升交点赤经 150.907° 157.161°
平近点角 266.531° 315.786°
近地点 511.902km 512.038km
远地点 515.528km 515.694km
周期 94.899分钟 94.903分钟
每日圈数 15.173959 15.17346
Detailed Information
固有亮度:
5
最大亮度:
2.5
卫星平台:
Starlink v1.5
覆盖范围:
全球
运营商:
太空探索技术公司
运营商所在国:
美国
制造商(研发单位):
太空探索技术公司
制造商所在国:
美国
使用方式:
暂无
Satellite Introduction
星链(Starlink)计划是由太空探索技术公司(SpaceX)提出的一个巨型低轨卫星互联网星座项目,计划在2019年至2024年间在太空搭建由约1.2万颗卫星组成的“星链”网络,其中1584颗将部署在地球上空550千米处的近地轨道,并从2020年开始工作。该卫星仍在工作。
2D Orbit Map
3D Orbit Map
Orbit Altitude Analysis Chart
Orbit Inclination Analysis Chart
Orbit Comprehensive Analysis Chart
View Comprehensive Chart
Conjunction Data List
Event ID Objects TCA Miss Dist (km) Collision Risk Probability Collision Risk Index (CRI) Action
CDM_260906-072205-019806-836824
2026-09-06T
07:22:09+0000
1.651 km
极远距离
4.628548E-6 低风险 0.48
CDM_260907-204505-019806-677821
2026-09-07T
20:45:04+0000
2.513 km
极远距离
1.732325E-6 低风险 0.4
CDM_260901-102205-019806-409021
OBJECT D (64090)
2026-09-01T
10:22:19+0000
2.588 km
极远距离
1.62288E-6 低风险 0.39
CDM_260905-121302-654705-019826
UNISAT (26547)
2026-09-05T
12:13:57+0000
2.584 km
极远距离
1.078677E-6 低风险 0.36